Location: Eschertshofen
(49.3064°N, 11.5756°E)
Time: 00:42:13
(UTC+00:00)

Iridium 26 - Pass Details

Date: 28 September 2021
Orbit: 772 x 775 km, 86.4° (Epoch: 21 October)

Event Time Altitude Azimuth Distance (km) Brightness Sun altitude
Exits shadow 19:13:15 20° 47° (NE) 1,721 7.1 -22.3°
Drops below altitude 10° 19:15:30 10° 26° (NNE) 2,333 8.0 -22.6°
Sets 19:18:11 0° 14° (NNE) 3,265 8.9 -23.0°
